EW7223 Weather Reports


time (UTC)temp
F
wind
direction
speed
knots
gust
knots
rain 1hr
in
rain 24hr
in
rain mn
in
humidity
%
barometer
mb
20260505102011 61 184 0.0 0.0 0.00 0.00 0.00 78 1016.0
20260505101526 61 184 0.0 0.0 0.00 0.00 0.00 78 1015.9
20260505101008 61 184 0.0 0.0 0.00 0.00 0.00 79 1016.1
20260505100511 61 184 0.0 1.7 0.00 0.00 0.00 78 1016.0
20260505100027 61 184 0.0 1.7 0.00 0.00 0.00 78 1016.1
20260505095506 61 184 0.0 1.7 0.00 0.00 0.00 78 1016.1
20260505095009 61 184 0.0 0.0 0.00 0.00 0.00 78 1015.9
20260505094529 61 184 0.0 0.0 0.00 0.00 0.00 78 1015.9
20260505094005 61 184 0.0 0.0 0.00 0.00 0.00 78 1016.0
20260505093505 61 184 0.0 1.7 0.00 0.00 0.00 78 1015.9
20260505093016 61 184 0.0 1.7 0.00 0.00 0.00 78 1015.9
20260505092506 61 184 0.0 0.0 0.00 0.00 0.00 78 1015.9
20260505092007 61 184 0.0 0.0 0.00 0.00 0.00 77 1015.9
20260505091520 61 184 0.0 0.0 0.00 0.00 0.00 77 1015.7
20260505091009 61 184 0.0 0.0 0.00 0.00 0.00 77 1015.7
20260505090507 61 184 0.0 0.9 0.00 0.00 0.00 77 1015.7
20260505090024 62 184 0.0 1.7 0.00 0.00 0.00 77 1015.7
20260505085508 62 184 0.0 1.7 0.00 0.00 0.00 77 1015.5
20260505085011 62 184 0.0 0.0 0.00 0.00 0.00 77 1015.7
20260505084534 62 184 0.0 0.0 0.00 0.00 0.00 77 1015.7
20260505084012 62 184 0.0 0.0 0.00 0.00 0.00 77 1015.9
20260505083507 62 184 0.0 0.0 0.00 0.00 0.00 77 1015.9
20260505083028 62 184 0.0 0.0 0.00 0.00 0.00 77 1016.0
20260505082506 62 184 0.0 0.0 0.00 0.00 0.00 77 1015.8
20260505082008 62 184 0.0 0.0 0.00 0.00 0.00 76 1015.8
20260505081520 63 184 0.0 0.0 0.00 0.00 0.00 76 1015.6
20260505081005 63 184 0.0 0.0 0.00 0.00 0.00 76 1015.7
20260505080504 63 184 0.0 0.0 0.00 0.00 0.00 76 1015.6
20260505080022 63 184 0.0 0.0 0.00 0.00 0.00 76 1015.6
20260505075507 63 184 0.0 1.7 0.00 0.00 0.00 76 1015.8
20260505075010 63 184 0.0 1.7 0.00 0.00 0.00 76 1015.8
20260505074524 63 184 0.0 1.7 0.00 0.00 0.00 75 1015.7
20260505074011 63 184 0.0 0.0 0.00 0.00 0.00 75 1015.7
20260505073509 64 184 0.0 0.0 0.00 0.00 0.00 75 1015.6
20260505073036 64 184 0.0 0.0 0.00 0.00 0.00 75 1015.8
20260505072508 64 184 0.0 0.0 0.00 0.00 0.00 75 1015.8
20260505072009 64 184 0.0 0.0 0.00 0.00 0.00 75 1016.0
20260505071530 64 184 0.0 0.0 0.00 0.00 0.00 75 1015.9
20260505071010 64 184 0.0 0.0 0.00 0.00 0.00 75 1015.8
20260505070508 64 184 0.0 0.0 0.00 0.00 0.00 75 1015.9
20260505070034 64 184 0.0 0.0 0.00 0.00 0.00 74 1015.9
20260505065508 64 184 0.0 0.0 0.00 0.00 0.00 74 1015.9
20260505065008 65 184 0.0 0.0 0.00 0.00 0.00 74 1016.0
20260505064525 65 184 0.0 0.0 0.00 0.00 0.00 74 1016.1
20260505064007 65 184 0.0 0.0 0.00 0.00 0.00 73 1016.1
20260505063508 65 184 0.0 0.0 0.00 0.00 0.00 73 1016.1
20260505063028 65 184 0.0 0.0 0.00 0.00 0.00 73 1016.1
20260505062511 65 184 0.0 0.0 0.00 0.00 0.00 73 1016.2
20260505062010 65 184 0.0 0.0 0.00 0.00 0.00 73 1016.2
20260505061536 65 184 0.0 0.0 0.00 0.00 0.00 73 1016.4
20260505061010 65 184 0.0 0.0 0.00 0.00 0.00 73 1016.3
20260505060517 65 184 0.0 0.9 0.00 0.00 0.00 72 1016.4
20260505060030 65 184 0.0 0.9 0.00 0.00 0.00 72 1016.3
20260505055510 66 184 0.0 0.0 0.00 0.00 0.00 72 1016.3
20260505055010 66 184 0.0 0.0 0.00 0.00 0.00 71 1016.5
20260505054530 66 184 0.0 0.0 0.00 0.00 0.00 71 1016.5
20260505054014 66 184 0.0 0.0 0.00 0.00 0.00 71 1016.6
20260505053514 66 184 0.0 0.0 0.00 0.00 0.00 70 1016.6
20260505053028 66 184 0.0 0.0 0.00 0.00 0.00 70 1016.6
20260505052507 66 184 0.0 0.0 0.00 0.00 0.00 70 1016.7
20260505052008 67 184 0.0 0.0 0.00 0.00 0.00 69 1016.8
20260505051526 67 184 0.0 0.0 0.00 0.00 0.00 69 1016.7
20260505051009 67 184 0.0 0.0 0.00 0.00 0.00 69 1016.9
20260505050504 67 184 0.0 0.0 0.00 0.00 0.00 68 1017.0
20260505041544 68 184 0.0 1.7 0.00 0.00 0.00 65 1017.2
20260505041008 69 184 0.0 1.7 0.00 0.00 0.00 65 1017.2
20260505040510 69 184 0.0 1.7 0.00 0.00 0.00 65 1017.2
20260505040038 69 184 0.0 1.7 0.00 0.00 0.00 64 1017.2
20260505035511 69 184 0.0 1.7 0.00 0.00 0.00 64 1017.2
20260505035008 69 184 0.0 1.7 0.00 0.00 0.00 64 1017.2
20260505034524 69 184 0.0 1.7 0.00 0.00 0.00 63 1017.2
20260505034008 69 184 0.0 1.7 0.00 0.00 0.00 63 1017.2
20260505033506 69 184 0.0 1.7 0.00 0.00 0.00 62 1017.4
20260505033025 69 184 0.0 1.7 0.00 0.00 0.00 63 1017.4
20260505032507 69 184 0.0 1.7 0.00 0.00 0.00 62 1017.4
20260505032009 69 184 0.0 1.7 0.00 0.00 0.00 62 1017.5
20260505031538 69 184 0.0 1.7 0.00 0.00 0.00 62 1017.5
20260505031008 69 184 0.0 1.7 0.00 0.00 0.00 61 1017.5
20260505030507 69 184 0.0 1.7 0.00 0.00 0.00 61 1017.6
20260505030029 70 184 0.0 1.7 0.00 0.00 0.00 61 1017.6
20260505025504 70 184 0.0 1.7 0.00 0.00 0.00 61 1017.5
20260505025009 70 201 0.0 1.7 0.00 0.00 0.00 61 1017.6
20260505024517 70 138 0.0 0.0 0.00 0.00 0.00 61 1017.5
20260505024007 70 138 0.0 0.0 0.00 0.00 0.00 61 1017.5
20260505023505 70 138 0.0 0.0 0.00 0.00 0.00 60 1017.5
20260505023022 70 138 0.0 0.0 0.00 0.00 0.00 60 1017.7
20260505022503 71 138 0.0 0.0 0.00 0.00 0.00 60 1017.5
20260505022003 71 138 0.0 0.0 0.00 0.00 0.00 59 1017.5
20260505021505 71 138 0.0 0.0 0.00 0.00 0.00 59 1017.5
20260505021008 71 138 0.0 1.7 0.00 0.00 0.00 59 1017.5
20260505020504 71 138 0.0 1.7 0.00 0.00 0.00 59 1017.5
20260505020010 71 138 0.0 1.7 0.00 0.00 0.00 60 1017.5
20260505015504 72 138 0.0 0.0 0.00 0.00 0.00 59 1017.4
20260505015004 72 138 0.0 1.7 0.00 0.00 0.00 58 1017.3
20260505014516 72 138 0.0 1.7 0.00 0.00 0.00 58 1017.3
20260505014009 72 138 0.0 0.9 0.00 0.00 0.00 58 1017.2
20260505013511 72 138 0.0 0.0 0.00 0.00 0.00 57 1017.1
20260505013019 73 138 0.0 0.9 0.00 0.00 0.00 56 1017.1
20260505012505 73 138 0.0 1.7 0.00 0.00 0.00 56 1017.0
20260505012008 73 140 0.0 1.7 0.00 0.00 0.00 57 1016.9
20260505011525 73 140 0.0 1.7 0.00 0.00 0.00 56 1016.8
20260505011003 73 140 0.0 1.7 0.00 0.00 0.00 56 1016.8
20260505010503 74 140 0.0 1.7 0.00 0.00 0.00 55 1016.7
20260505010007 74 140 0.0 1.7 0.00 0.00 0.00 55 1016.7
20260505005504 74 140 0.0 1.7 0.00 0.00 0.00 55 1016.6
20260505005004 74 186 0.0 1.7 0.00 0.00 0.00 55 1016.6
20260505004514 75 186 0.0 1.7 0.00 0.00 0.00 54 1016.5
20260505004006 75 190 0.0 1.7 0.00 0.00 0.00 54 1016.5
20260505003511 75 190 0.0 1.7 0.00 0.00 0.00 54 1016.5
20260505003021 75 190 0.0 1.7 0.00 0.00 0.00 53 1016.5
20260505002508 75 217 0.0 1.7 0.00 0.00 0.00 54 1016.5
20260505002009 75 217 0.0 1.7 0.00 0.00 0.00 53 1016.5
20260505001524 76 217 0.0 1.7 0.00 0.00 0.00 53 1016.3
20260505001008 76 97 0.0 1.7 0.00 0.00 0.00 52 1016.3
20260505000514 76 98 0.0 1.7 0.00 0.00 0.00 52 1016.1
20260505000030 76 98 0.9 1.7 0.00 0.00 0.00 52 1016.0
20260504235507 76 117 0.0 1.7 0.00 0.00 0.00 52 1016.0
20260504235004 77 67 0.9 1.7 0.00 0.00 0.00 52 1016.0
20260504234511 77 352 0.0 1.7 0.00 0.00 0.00 52 1016.1
20260504234004 77 82 0.0 1.7 0.00 0.00 0.00 51 1016.0
20260504233509 77 76 0.0 1.7 0.00 0.00 0.00 50 1015.8
20260504233016 78 103 0.9 1.7 0.00 0.00 0.00 50 1015.7
20260504232508 78 158 0.9 1.7 0.00 0.00 0.00 49 1015.6
20260504232007 78 113 0.0 1.7 0.00 0.00 0.00 49 1015.7
20260504231519 78 180 0.9 1.7 0.00 0.00 0.00 48 1015.7
20260504231008 79 264 0.0 1.7 0.00 0.00 0.00 48 1015.8
20260504230509 79 96 0.0 1.7 0.00 0.00 0.00 48 1015.6
20260504230026 79 298 0.9 2.6 0.00 0.00 0.00 47 1015.4
20260504225509 79 247 0.9 4.3 0.00 0.00 0.00 47 1015.4
20260504225009 80 237 0.9 4.3 0.00 0.00 0.00 47 1015.4
20260504224526 80 165 0.9 2.6 0.00 0.00 0.00 47 1015.6
20260504224004 80 103 0.9 3.5 0.00 0.00 0.00 47 1015.6
20260504223505 81 103 0.9 3.5 0.00 0.00 0.00 46 1015.5
20260504223025 81 189 0.0 3.5 0.00 0.00 0.00 47 1015.6
20260504222505 81 111 1.7 3.5 0.00 0.00 0.00 46 1015.6
20260504222006 81 291 0.9 3.5 0.00 0.00 0.00 46 1015.6
20260504221519 81 219 0.9 3.5 0.00 0.00 0.00 46 1015.7
20260504221008 82 103 0.9 2.6 0.00 0.00 0.00 45 1015.7
20260504220509 82 102 0.9 3.5 0.00 0.00 0.00 45 1015.7
20260504220024 82 180 1.7 3.5 0.00 0.00 0.00 44 1015.6
20260504215508 82 153 0.9 6.1 0.00 0.00 0.00 45 1015.6
20260504215009 82 113 0.9 6.1 0.00 0.00 0.00 43 1015.7
20260504214530 83 254 1.7 5.2 0.00 0.00 0.00 44 1015.7
20260504214009 83 178 1.7 7.0 0.00 0.00 0.00 44 1015.6
20260504213512 83 312 1.7 7.0 0.00 0.00 0.00 44 1015.7
20260504213022 83 336 0.9 5.2 0.00 0.00 0.00 43 1015.7
20260504212505 83 261 0.9 2.6 0.00 0.00 0.00 42 1015.8
20260504212006 84 153 1.7 3.5 0.00 0.00 0.00 42 1015.9
20260504211520 83 238 0.9 4.3 0.00 0.00 0.00 43 1015.9
20260504211005 83 83 0.9 4.3 0.00 0.00 0.00 43 1015.8
20260504210507 84 221 0.9 3.5 0.00 0.00 0.00 42 1015.8
20260504210023 84 352 0.9 3.5 0.00 0.00 0.00 42 1015.9
20260504205506 85 53 0.9 3.5 0.00 0.00 0.00 42 1016.0
20260504205008 85 5 0.9 3.5 0.00 0.00 0.00 42 1015.9
20260504204537 85 102 0.9 3.5 0.00 0.00 0.00 41 1015.9
20260504204014 85 126 1.7 5.2 0.00 0.00 0.00 41 1015.9
20260504203510 86 103 1.7 5.2 0.00 0.00 0.00 40 1015.9
20260504203028 86 138 0.9 4.3 0.00 0.00 0.00 42 1015.8
20260504202511 85 215 0.9 3.5 0.00 0.00 0.00 40 1015.9
20260504202011 86 270 1.7 6.1 0.00 0.00 0.00 40 1015.9
20260504201513 86 84 1.7 6.1 0.00 0.00 0.00 41 1016.0
20260504201006 87 237 0.9 6.1 0.00 0.00 0.00 40 1016.0
20260504200507 87 71 1.7 2.6 0.00 0.00 0.00 43 1016.0
20260504200023 86 144 0.9 2.6 0.00 0.00 0.00 42 1016.1
20260504195506 85 24 1.7 2.6 0.00 0.00 0.00 44 1016.2
20260504195012 85 300 0.0 1.7 0.00 0.00 0.00 41 1016.3
20260504194525 84 144 0.9 5.2 0.00 0.00 0.00 44 1016.4
20260504194009 84 257 1.7 5.2 0.00 0.00 0.00 44 1016.3
20260504193509 84 100 0.0 2.6 0.00 0.00 0.00 44 1016.3
20260504193028 84 115 0.9 4.3 0.00 0.00 0.00 42 1016.3
20260504192510 84 61 0.9 4.3 0.00 0.00 0.00 41 1016.4
20260504192012 84 208 0.9 3.5 0.00 0.00 0.00 42 1016.5
20260504191527 84 253 0.9 2.6 0.00 0.00 0.00 44 1016.5
20260504191010 84 105 0.9 2.6 0.00 0.00 0.00 40 1016.7
20260504190510 84 249 0.9 3.5 0.00 0.00 0.00 39 1016.7
20260504190022 84 255 0.9 3.5 0.00 0.00 0.00 41 1016.8
20260504185506 84 246 0.0 3.5 0.00 0.00 0.00 39 1016.8
20260504185008 84 286 0.9 1.7 0.00 0.00 0.00 42 1016.9
20260504184524 84 242 0.0 1.7 0.00 0.00 0.00 40 1017.1
20260504184007 85 128 0.0 5.2 0.00 0.00 0.00 41 1017.1
20260504183507 85 292 0.9 5.2 0.00 0.00 0.00 39 1017.1
20260504183025 84 224 1.7 3.5 0.00 0.00 0.00 42 1017.2
20260504182511 84 111 0.9 2.6 0.00 0.00 0.00 42 1017.3
20260504182011 85 289 0.9 2.6 0.00 0.00 0.00 40 1017.2
20260504181531 86 103 0.9 5.2 0.00 0.00 0.00 40 1017.5
20260504181010 86 337 0.9 5.2 0.00 0.00 0.00 41 1017.4
20260504180511 86 112 1.7 5.2 0.00 0.00 0.00 42 1017.4
20260504180028 86 291 0.9 5.2 0.00 0.00 0.00 39 1017.3
20260504175503 85 160 1.7 5.2 0.00 0.00 0.00 42 1017.5
20260504175003 85 69 1.7 5.2 0.00 0.00 0.00 43 1017.6
20260504174507 84 269 0.9 3.5 0.00 0.00 0.00 42 1017.5
20260504174003 83 124 0.9 3.5 0.00 0.00 0.00 45 1017.4
20260504173503 83 103 0.9 3.5 0.00 0.00 0.00 44 1017.4
20260504173006 83 348 1.7 6.1 0.00 0.00 0.00 43 1017.4
20260504172504 83 36 0.9 6.1 0.00 0.00 0.00 45 1017.3
20260504172003 83 117 0.9 2.6 0.00 0.00 0.00 45 1017.4
20260504171510 82 39 0.9 2.6 0.00 0.00 0.00 46 1017.6
20260504171003 81 62 0.9 3.5 0.00 0.00 0.00 49 1017.7
20260504170503 81 106 0.0 3.5 0.00 0.00 0.00 49 1017.9
20260504151003 75 232 1.7 5.2 0.00 0.00 0.00 53 1018.8
20260504150503 75 201 0.9 3.5 0.00 0.00 0.00 52 1018.8
20260504141003 73 80 0.9 1.7 0.00 0.00 0.00 51 1018.6
20260504140503 73 329 0.0 4.3 0.00 0.00 0.00 53 1018.6
20260504130504 71 145 0.0 1.7 0.00 0.00 0.00 68 1018.5
20260504110505 62 202 0.0 0.0 0.00 0.00 0.00 78 1017.5